Showing default

TIROS 10, 1430

Orbit data source: Space-Track

TIROS 10, 1430 is a payload satellite owned by ESSA (US) in SSO that was launched on Fri, 02 Jul 1965 UTC via a THOR DELTA C launch vehicle from the Air Force Eastern Test Range (AFETR). Payload-class satellites include a variety of spacecraft equipped with specific instruments for various scientific and technological missions. These include communications satellites like Starlink; space stations such as the ISS; scientific satellites like the Hubble; Earth observation satellites from companies like Planet Labs, Umbra, and HawkEye 360; GPS; miniature CubeSats for education and research; and military/defense satellites.

Loading next visibility...
Identifier
1430, 1965-051A
Orbit
SSO
Country
Flag of USUS
Related business
Manufacturer
RCA/East Windsor
Mission
Non-operational spacecraft
Bus & Motor
TIROS I, Unknown motor
Mass
127 kg wet, 127 kg dry
Launch date (UTC)
1965-07-02 (61 years ago)
Launch vehicle
THOR DELTA C
Launch site
Air Force Eastern Test Range (AFETR)
Object type
Payload
Rocket body
Debris
Shape & HBR
Unknown
Radar Cross Section
Medium (>0.1 m² and <1 m²)

Expand to show TLE details & history
Last TLE update: 14 hours ago

TLE from 14 hours ago
0 TIROS 10
1  1430U 65051A   26035.33620120  .00000275  00000-0  96514-4 0  9991
2  1430  98.4865 155.3883 0056372 117.5075 243.1859 14.41570703176774
Epoch: 2026-02-04T08:04Z
TLE epoch observation values (Epoch: 2026-02-04T08:04:07.783Z)
Latitude
-0.00005°
Longitude
-100.14837°
Altitude
774.583 km
Speed
7.457 km/s
True Right ascension
10h 21m 33s
True Declination
0° 00' 00"
Sunlit
Object was in full shadow at epoch
Visualization orbit readout
Latitude
Unknown
Longitude
Unknown
Altitude
Unknown
Speed
Unknown
Apparent Right ascension
Unknown
Apparent Declination
Unknown
Sunlit
N/A
Visualization observer readout
Local Sidereal Time
00:23:22
Azimuth
Unknown
Elevation
Unknown
Doppler factor
Unknown
Orbital elements
Apogee altitude
790.618 km
Perigee altitude
710.247 km
Semi-major axis
7,128.57 km
Eccentricity
0.00564
Inclination
98.4865°
RAAN
155.3883°
Arg. of periapsis
117.5075°
True anomaly
242.61122°
Mean anomaly
243.1859°
Eccentric anomaly
242.89838°
Mean motion
3.60612 °/min
Orbital period
99.83 mins
BSTAR
0.000096514
Loading maneuver chart data...
Computing Atmospheric mass density...
Loading historical data...
Loading historical data...
Loading historical data...
Loading historical data...
Loading historical data...
Loading historical data...
Loading historical data...
Other satellites on launch #51 in the year 1965 (1965-07-02 UTC)

Documentation

Showing up to 5 results
|